ANZ952 NZAA-NFFN

Flight info

Callsign ANZ952
Flight time 2h 21m
Altitude 34000
Route KALAG A578 AGTOS A577 MI
Aircraft B77W/H-SDE1E2E3FGHIJ2J3J4J5M1RWXY/LB1D1

Departure

Time 2026-05-06 02:01
Airport Auckland International Airport (NZAA)

Arrival

Time 2026-05-06 04:23
Airport Nadi International Airport (NFFN)
Time Latitude Longitude Altitude Speed Heading
2026-05-06 01:33 -37.00777 174.78122 37 ft 0 kts 69°
2026-05-06 01:51 -37.00778 174.78120 37 ft 1 kts 69°
2026-05-06 01:51 -37.00783 174.78104 37 ft 2 kts 69°
2026-05-06 01:52 -37.00789 174.78087 37 ft 2 kts 69°
2026-05-06 01:52 -37.00794 174.78069 38 ft 2 kts 69°
2026-05-06 01:52 -37.00800 174.78052 38 ft 2 kts 69°
2026-05-06 01:52 -37.00805 174.78033 38 ft 2 kts 90°
2026-05-06 01:53 -37.00801 174.78017 39 ft 2 kts 128°
2026-05-06 01:53 -37.00791 174.78006 39 ft 0 kts 159°
2026-05-06 01:53 -37.00787 174.78005 39 ft 0 kts 161°
2026-05-06 01:55 -37.00793 174.78006 39 ft 2 kts 161°
2026-05-06 01:55 -37.00820 174.78020 38 ft 6 kts 159°
2026-05-06 01:55 -37.00866 174.78055 37 ft 9 kts 140°
2026-05-06 01:56 -37.00909 174.78117 34 ft 6 kts 123°
2026-05-06 01:56 -37.00938 174.78174 33 ft 8 kts 123°
2026-05-06 01:56 -37.00977 174.78239 32 ft 9 kts 138°
2026-05-06 01:56 -37.01043 174.78279 32 ft 10 kts 168°
2026-05-06 01:57 -37.01108 174.78242 32 ft 11 kts 232°
2026-05-06 01:57 -37.01144 174.78151 32 ft 11 kts 248°
2026-05-06 01:57 -37.01176 174.78053 32 ft 12 kts 248°
2026-05-06 01:57 -37.01207 174.77953 32 ft 12 kts 253°
2026-05-06 01:58 -37.01228 174.77847 32 ft 12 kts 253°
2026-05-06 01:58 -37.01254 174.77743 32 ft 12 kts 252°
2026-05-06 01:58 -37.01281 174.77638 32 ft 12 kts 252°
2026-05-06 01:58 -37.01308 174.77531 32 ft 13 kts 252°
2026-05-06 01:59 -37.01339 174.77418 30 ft 14 kts 249°
2026-05-06 01:59 -37.01374 174.77300 29 ft 15 kts 249°
2026-05-06 01:59 -37.01412 174.77174 29 ft 15 kts 243°
2026-05-06 01:59 -37.01497 174.77098 29 ft 15 kts 195°
2026-05-06 02:00 -37.01590 174.77086 29 ft 4 kts 171°
2026-05-06 02:00 -37.01610 174.77113 29 ft 4 kts 95°
2026-05-06 02:00 -37.01604 174.77158 29 ft 7 kts 75°
2026-05-06 02:00 -37.01531 174.77446 30 ft 79 kts 70°
2026-05-06 02:01 -37.01249 174.78465 68 ft 164 kts 68°
2026-05-06 02:01 -37.00861 174.79800 1094 ft 170 kts 68°
2026-05-06 02:01 -37.00501 174.81133 2070 ft 167 kts 67°
2026-05-06 02:01 -37.00112 174.82538 2741 ft 175 kts 68°
2026-05-06 02:02 -36.99810 174.83925 3701 ft 165 kts 72°
2026-05-06 02:02 -36.99402 174.85350 4169 ft 182 kts 64°
2026-05-06 02:02 -36.98916 174.86893 4727 ft 199 kts 67°
2026-05-06 02:02 -36.98441 174.88586 5269 ft 217 kts 68°
2026-05-06 02:03 -36.97929 174.90436 5900 ft 233 kts 68°
2026-05-06 02:03 -36.97375 174.92432 6538 ft 251 kts 68°
2026-05-06 02:03 -36.96787 174.94547 7211 ft 267 kts 68°
2026-05-06 02:03 -36.96167 174.96780 8120 ft 274 kts 68°
2026-05-06 02:04 -36.95278 174.98874 9008 ft 274 kts 46°
2026-05-06 02:04 -36.93797 175.00307 9878 ft 274 kts 22°
2026-05-06 02:04 -36.91919 175.00896 10641 ft 283 kts
2026-05-06 02:04 -36.89874 175.01132 11235 ft 300 kts
2026-05-06 02:05 -36.87736 175.01350 11840 ft 318 kts
2026-05-06 02:05 -36.85475 175.01579 12489 ft 333 kts
2026-05-06 02:05 -36.83126 175.01817 13144 ft 349 kts
2026-05-06 02:05 -36.80658 175.02066 13795 ft 364 kts
2026-05-06 02:06 -36.78096 175.02324 14442 ft 379 kts
2026-05-06 02:06 -36.75430 175.02593 15272 ft 388 kts
2026-05-06 02:06 -36.72728 175.02866 16214 ft 394 kts
2026-05-06 02:06 -36.70004 175.03140 17132 ft 399 kts
2026-05-06 02:07 -36.67214 175.03422 18013 ft 406 kts
2026-05-06 02:07 -36.64415 175.03703 18814 ft 413 kts
2026-05-06 02:07 -36.61528 175.03995 19543 ft 421 kts
2026-05-06 02:07 -36.58579 175.04291 20289 ft 429 kts
2026-05-06 02:08 -36.55563 175.04593 21010 ft 436 kts
2026-05-06 02:08 -36.52493 175.04901 21709 ft 444 kts
2026-05-06 02:08 -36.49395 175.05212 22365 ft 451 kts
2026-05-06 02:08 -36.46256 175.05527 23030 ft 458 kts
2026-05-06 02:09 -36.43015 175.05852 23700 ft 466 kts
2026-05-06 02:09 -36.39714 175.06181 24393 ft 472 kts
2026-05-06 02:09 -36.36436 175.06509 25022 ft 480 kts
2026-05-06 02:09 -36.33073 175.06845 25681 ft 486 kts
2026-05-06 02:10 -36.29695 175.07182 26337 ft 492 kts
2026-05-06 02:10 -36.26290 175.07523 26961 ft 498 kts
2026-05-06 02:10 -36.22777 175.07872 27560 ft 505 kts
2026-05-06 02:10 -36.19240 175.08225 28182 ft 511 kts
2026-05-06 02:11 -36.15697 175.08577 28757 ft 517 kts
2026-05-06 02:11 -36.12073 175.08937 29385 ft 522 kts
2026-05-06 02:11 -36.08477 175.09294 30063 ft 525 kts
2026-05-06 02:11 -36.04828 175.09657 30861 ft 525 kts
2026-05-06 02:12 -36.01235 175.10014 31798 ft 520 kts
2026-05-06 02:12 -35.97632 175.10373 32721 ft 516 kts
2026-05-06 02:12 -35.94088 175.10724 33519 ft 512 kts
2026-05-06 02:12 -35.90547 175.11075 34168 ft 511 kts
2026-05-06 02:13 -35.86978 175.11429 34320 ft 514 kts
2026-05-06 02:13 -35.83447 175.11777 34337 ft 512 kts
2026-05-06 02:13 -35.76361 175.12477 34340 ft 509 kts
2026-05-06 02:14 -35.69293 175.13174 34345 ft 509 kts
2026-05-06 02:14 -35.62253 175.13867 34344 ft 509 kts
2026-05-06 02:15 -35.55152 175.14565 34344 ft 508 kts
2026-05-06 02:15 -35.48098 175.15256 34344 ft 508 kts
2026-05-06 02:16 -35.41084 175.15942 34339 ft 509 kts
2026-05-06 02:16 -35.34041 175.16631 34340 ft 510 kts
2026-05-06 02:17 -35.26920 175.17325 34332 ft 511 kts
2026-05-06 02:17 -35.19861 175.18012 34334 ft 509 kts
2026-05-06 02:18 -35.12850 175.18694 34334 ft 508 kts
2026-05-06 02:18 -35.05770 175.19380 34334 ft 508 kts
2026-05-06 02:19 -34.98680 175.20067 34330 ft 508 kts
2026-05-06 02:19 -34.91611 175.20750 34327 ft 508 kts
2026-05-06 02:20 -34.80890 175.21785 34316 ft 508 kts
2026-05-06 02:21 -34.73757 175.22472 34317 ft 511 kts
2026-05-06 02:21 -34.66612 175.23158 34316 ft 510 kts
2026-05-06 02:22 -34.59518 175.23839 34315 ft 510 kts
2026-05-06 02:22 -34.52465 175.24515 34318 ft 510 kts
2026-05-06 02:23 -34.45389 175.25191 34318 ft 509 kts
2026-05-06 02:23 -34.38323 175.25865 34314 ft 510 kts
2026-05-06 02:24 -34.31232 175.26541 34315 ft 509 kts
2026-05-06 02:24 -34.24183 175.27217 34321 ft 509 kts
2026-05-06 02:25 -34.17078 175.27898 34316 ft 509 kts
2026-05-06 02:25 -34.10017 175.28572 34313 ft 509 kts
2026-05-06 02:26 -34.02931 175.29245 34314 ft 510 kts
2026-05-06 02:26 -33.95889 175.29913 34317 ft 509 kts
2026-05-06 02:27 -33.88819 175.30580 34312 ft 510 kts
2026-05-06 02:27 -33.81699 175.31249 34311 ft 511 kts
2026-05-06 02:28 -33.74618 175.31908 34309 ft 511 kts
2026-05-06 02:28 -33.67491 175.32568 34309 ft 512 kts
2026-05-06 02:29 -33.60425 175.33650 34299 ft 514 kts
2026-05-06 02:29 -33.53345 175.34758 34293 ft 513 kts
2026-05-06 02:30 -33.46269 175.35844 34293 ft 513 kts
2026-05-06 02:30 -33.39152 175.36925 34291 ft 513 kts
2026-05-06 02:31 -33.32091 175.37987 34290 ft 513 kts
2026-05-06 02:31 -33.25024 175.39046 34290 ft 512 kts
2026-05-06 02:32 -33.17923 175.40106 34286 ft 513 kts
2026-05-06 02:32 -33.10795 175.41168 34286 ft 514 kts
2026-05-06 02:33 -33.06086 175.41869 34289 ft 515 kts
2026-05-06 02:33 -33.01324 175.42575 34286 ft 514 kts
2026-05-06 02:34 -32.89500 175.44328 34283 ft 515 kts
2026-05-06 02:34 -32.82397 175.45378 34274 ft 515 kts
2026-05-06 02:35 -32.75263 175.46431 34275 ft 515 kts
2026-05-06 02:35 -32.68144 175.47479 34273 ft 515 kts
2026-05-06 02:36 -32.61043 175.48524 34271 ft 515 kts
2026-05-06 02:36 -32.53919 175.49570 34270 ft 515 kts
2026-05-06 02:37 -32.46811 175.50612 34272 ft 515 kts
2026-05-06 02:37 -32.39708 175.51653 34269 ft 515 kts
2026-05-06 02:38 -32.32585 175.52693 34267 ft 516 kts
2026-05-06 02:38 -32.25405 175.53742 34270 ft 516 kts
2026-05-06 02:39 -32.18316 175.54774 34270 ft 515 kts
2026-05-06 02:39 -32.11190 175.55811 34270 ft 516 kts
2026-05-06 02:40 -32.04026 175.56851 34257 ft 517 kts
2026-05-06 02:40 -31.96900 175.57884 34255 ft 516 kts
2026-05-06 02:41 -31.89783 175.58914 34255 ft 517 kts
2026-05-06 02:41 -31.82633 175.59949 34241 ft 517 kts
2026-05-06 02:42 -31.75482 175.60980 34235 ft 518 kts
2026-05-06 02:42 -31.68284 175.62018 34228 ft 519 kts
2026-05-06 02:43 -31.61133 175.63046 34231 ft 519 kts
2026-05-06 02:43 -31.53933 175.64081 34228 ft 519 kts
2026-05-06 02:44 -31.46783 175.65106 34234 ft 520 kts
2026-05-06 02:44 -31.39528 175.66145 34220 ft 520 kts
2026-05-06 02:45 -31.32310 175.67178 34220 ft 520 kts
2026-05-06 02:45 -31.25130 175.68204 34227 ft 520 kts
2026-05-06 02:46 -31.17906 175.69232 34221 ft 522 kts
2026-05-06 02:46 -31.10710 175.70258 34227 ft 521 kts
2026-05-06 02:47 -31.03503 175.71281 34216 ft 522 kts
2026-05-06 02:47 -30.96302 175.72304 34219 ft 522 kts
2026-05-06 02:48 -30.89083 175.73326 34218 ft 523 kts
2026-05-06 02:48 -30.81846 175.74347 34211 ft 524 kts
2026-05-06 02:49 -30.74568 175.75371 34208 ft 524 kts
2026-05-06 02:49 -30.67315 175.76392 34210 ft 525 kts
2026-05-06 02:50 -30.60071 175.77408 34205 ft 524 kts
2026-05-06 02:50 -30.52838 175.78421 34206 ft 526 kts
2026-05-06 02:51 -30.45542 175.79443 34207 ft 526 kts
2026-05-06 02:51 -30.38270 175.80460 34210 ft 526 kts
2026-05-06 02:52 -30.30992 175.81474 34206 ft 528 kts
2026-05-06 02:52 -30.23717 175.82487 34209 ft 529 kts
2026-05-06 02:53 -30.16408 175.83505 34202 ft 527 kts
2026-05-06 02:53 -30.09093 175.84521 34208 ft 529 kts
2026-05-06 02:54 -30.01792 175.85533 34205 ft 528 kts
2026-05-06 02:54 -29.94465 175.86549 34198 ft 529 kts
2026-05-06 02:55 -29.87166 175.87558 34199 ft 531 kts
2026-05-06 02:55 -29.79831 175.88571 34192 ft 528 kts
2026-05-06 02:56 -29.72489 175.89583 34190 ft 532 kts
2026-05-06 02:56 -29.65133 175.90596 34189 ft 532 kts
2026-05-06 02:57 -29.57795 175.91605 34187 ft 533 kts
2026-05-06 02:57 -29.50356 175.92625 34184 ft 537 kts
2026-05-06 02:58 -29.42954 175.93642 34179 ft 534 kts
2026-05-06 02:58 -29.35564 175.94652 34175 ft 537 kts
2026-05-06 02:59 -29.28114 175.95671 34173 ft 536 kts
2026-05-06 02:59 -29.20682 175.96686 34170 ft 538 kts
2026-05-06 03:00 -29.13255 175.97697 34166 ft 539 kts
2026-05-06 03:00 -29.05751 175.98718 34166 ft 542 kts
2026-05-06 03:01 -28.98303 175.99730 34163 ft 540 kts
2026-05-06 03:01 -28.90793 176.00749 34165 ft 542 kts
2026-05-06 03:02 -28.83307 176.01762 34145 ft 543 kts
2026-05-06 03:02 -28.75744 176.02786 34153 ft 544 kts
2026-05-06 03:03 -28.68198 176.03806 34156 ft 546 kts
2026-05-06 03:03 -28.60640 176.04825 34159 ft 547 kts
2026-05-06 03:04 -28.53047 176.05849 34157 ft 549 kts
2026-05-06 03:04 -28.45503 176.06863 34160 ft 550 kts
2026-05-06 03:05 -28.37872 176.07889 34154 ft 549 kts
2026-05-06 03:05 -28.30277 176.08907 34157 ft 551 kts
2026-05-06 03:06 -28.22687 176.09923 34152 ft 550 kts
2026-05-06 03:06 -28.15012 176.10950 34149 ft 551 kts
2026-05-06 03:07 -28.07404 176.11966 34153 ft 552 kts
2026-05-06 03:07 -27.99744 176.12987 34143 ft 552 kts
2026-05-06 03:08 -27.92078 176.14008 34147 ft 551 kts
2026-05-06 03:08 -27.84471 176.15019 34128 ft 553 kts
2026-05-06 03:09 -27.76781 176.16040 34126 ft 551 kts
2026-05-06 03:09 -27.69188 176.17047 34125 ft 552 kts
2026-05-06 03:10 -27.61539 176.18060 34127 ft 550 kts
2026-05-06 03:10 -27.53957 176.19063 34130 ft 552 kts
2026-05-06 03:11 -27.46308 176.20073 34126 ft 550 kts
2026-05-06 03:11 -27.38666 176.21080 34124 ft 554 kts
2026-05-06 03:12 -27.31030 176.22087 34124 ft 549 kts
2026-05-06 03:12 -27.23401 176.23090 34128 ft 551 kts
2026-05-06 03:13 -27.15791 176.24089 34128 ft 548 kts
2026-05-06 03:13 -27.08192 176.25084 34127 ft 551 kts
2026-05-06 03:14 -27.00566 176.26083 34129 ft 550 kts
2026-05-06 03:14 -26.92953 176.27078 34127 ft 550 kts
2026-05-06 03:15 -26.85300 176.28078 34107 ft 550 kts
2026-05-06 03:15 -26.77744 176.29063 34107 ft 551 kts
2026-05-06 03:16 -26.70112 176.30058 34106 ft 550 kts
2026-05-06 03:16 -26.62460 176.31053 34104 ft 550 kts
2026-05-06 03:17 -26.54826 176.32045 34102 ft 550 kts
2026-05-06 03:17 -26.47236 176.33029 34104 ft 552 kts
2026-05-06 03:18 -26.39581 176.34021 34101 ft 551 kts
2026-05-06 03:18 -26.31950 176.35008 34108 ft 551 kts
2026-05-06 03:19 -26.24318 176.35994 34106 ft 551 kts
2026-05-06 03:19 -26.16695 176.36978 34111 ft 550 kts
2026-05-06 03:20 -26.05294 176.38446 34104 ft 551 kts
2026-05-06 03:20 -25.97665 176.39427 34104 ft 551 kts
2026-05-06 03:21 -25.90021 176.40410 34110 ft 551 kts
2026-05-06 03:21 -25.82399 176.41386 34088 ft 551 kts
2026-05-06 03:22 -25.74736 176.42369 34080 ft 551 kts
2026-05-06 03:22 -25.67141 176.43341 34081 ft 549 kts
2026-05-06 03:23 -25.59531 176.44313 34077 ft 551 kts
2026-05-06 03:23 -25.51864 176.45291 34076 ft 549 kts
2026-05-06 03:24 -25.44273 176.46258 34071 ft 552 kts
2026-05-06 03:24 -25.36675 176.47226 34071 ft 549 kts
2026-05-06 03:25 -25.29031 176.48198 34071 ft 549 kts
2026-05-06 03:25 -25.21450 176.49159 34071 ft 551 kts
2026-05-06 03:26 -25.13849 176.50124 34064 ft 548 kts
2026-05-06 03:26 -25.06243 176.51086 34058 ft 552 kts
2026-05-06 03:27 -24.98599 176.52054 34062 ft 548 kts
2026-05-06 03:27 -24.91021 176.53012 34056 ft 549 kts
2026-05-06 03:28 -24.83399 176.53975 34041 ft 549 kts
2026-05-06 03:28 -24.75744 176.54941 34036 ft 549 kts
2026-05-06 03:29 -24.68173 176.55894 34036 ft 549 kts
2026-05-06 03:29 -24.60538 176.56856 34033 ft 548 kts
2026-05-06 03:30 -24.52992 176.57805 34039 ft 548 kts
2026-05-06 03:30 -24.45380 176.58760 34036 ft 547 kts
2026-05-06 03:31 -24.37812 176.59708 34034 ft 550 kts
2026-05-06 03:31 -24.30205 176.60661 34031 ft 547 kts
2026-05-06 03:32 -24.22565 176.61616 34028 ft 550 kts
2026-05-06 03:32 -24.14960 176.62567 34032 ft 547 kts
2026-05-06 03:33 -24.07391 176.63512 34031 ft 548 kts
2026-05-06 03:33 -23.99801 176.64458 34030 ft 550 kts
2026-05-06 03:34 -23.92199 176.65404 34013 ft 548 kts
2026-05-06 03:34 -23.84591 176.66350 33996 ft 549 kts
2026-05-06 03:35 -23.77013 176.67291 33993 ft 549 kts
2026-05-06 03:35 -23.69419 176.68233 33994 ft 548 kts
2026-05-06 03:36 -23.61788 176.69179 33994 ft 550 kts
2026-05-06 03:36 -23.54200 176.70117 33988 ft 547 kts
2026-05-06 03:37 -23.46589 176.71059 33996 ft 549 kts
2026-05-06 03:37 -23.39010 176.71994 33995 ft 546 kts
2026-05-06 03:38 -23.31428 176.72929 33997 ft 547 kts
2026-05-06 03:38 -23.23863 176.73860 33992 ft 547 kts
2026-05-06 03:39 -23.16279 176.74794 34002 ft 548 kts
2026-05-06 03:39 -23.08690 176.75726 33990 ft 549 kts
2026-05-06 03:40 -23.01041 176.76665 33990 ft 549 kts
2026-05-06 03:40 -22.93460 176.77596 33998 ft 547 kts
2026-05-06 03:41 -22.85893 176.78522 33977 ft 546 kts
2026-05-06 03:41 -22.78318 176.79448 33970 ft 549 kts
2026-05-06 03:42 -22.70719 176.80377 33978 ft 546 kts
2026-05-06 03:42 -22.63157 176.81300 33972 ft 548 kts
2026-05-06 03:43 -22.55573 176.82225 33967 ft 547 kts
2026-05-06 03:43 -22.47932 176.83156 33968 ft 549 kts
2026-05-06 03:44 -22.40346 176.84079 33968 ft 546 kts
2026-05-06 03:44 -22.32784 176.84998 33964 ft 550 kts
2026-05-06 03:45 -22.25151 176.85925 33966 ft 547 kts
2026-05-06 03:45 -22.17581 176.86842 33963 ft 550 kts
2026-05-06 03:46 -22.09979 176.87764 33955 ft 549 kts
2026-05-06 03:46 -22.02341 176.88689 33956 ft 547 kts
2026-05-06 03:47 -21.94741 176.89606 33958 ft 550 kts
2026-05-06 03:47 -21.87150 176.90524 33942 ft 548 kts
2026-05-06 03:48 -21.79566 176.91438 33940 ft 546 kts
2026-05-06 03:48 -21.71991 176.92351 33942 ft 548 kts
2026-05-06 03:49 -21.64384 176.93266 33943 ft 547 kts
2026-05-06 03:49 -21.56819 176.94176 33938 ft 548 kts
2026-05-06 03:50 -21.49247 176.95087 33941 ft 545 kts
2026-05-06 03:50 -21.41703 176.95991 33951 ft 546 kts
2026-05-06 03:51 -21.34071 176.96905 33957 ft 545 kts
2026-05-06 03:51 -21.26526 176.97809 33956 ft 546 kts
2026-05-06 03:52 -21.18942 176.98717 33958 ft 545 kts
2026-05-06 03:52 -21.11391 176.99617 33964 ft 547 kts
2026-05-06 03:53 -21.03772 177.00528 33959 ft 543 kts
2026-05-06 03:53 -20.96217 177.01428 33958 ft 544 kts
2026-05-06 03:54 -20.88584 177.02339 33948 ft 540 kts
2026-05-06 03:54 -20.80995 177.03239 33937 ft 548 kts
2026-05-06 03:55 -20.73379 177.04146 33933 ft 543 kts
2026-05-06 03:55 -20.65771 177.05049 33929 ft 547 kts
2026-05-06 03:56 -20.58132 177.05955 33919 ft 545 kts
2026-05-06 03:56 -20.50491 177.06860 33922 ft 546 kts
2026-05-06 03:57 -20.42951 177.07756 33915 ft 540 kts
2026-05-06 03:57 -20.35427 177.08644 33921 ft 543 kts
2026-05-06 03:58 -20.27878 177.09537 33919 ft 542 kts
2026-05-06 03:58 -20.20354 177.10367 33915 ft 541 kts
2026-05-06 03:59 -20.12775 177.11081 33920 ft 538 kts 360°
2026-05-06 03:59 -20.05259 177.11789 33919 ft 542 kts
2026-05-06 04:00 -19.97721 177.12505 33924 ft 540 kts
2026-05-06 04:00 -19.90115 177.13228 33929 ft 540 kts
2026-05-06 04:01 -19.82619 177.13942 33903 ft 538 kts
2026-05-06 04:01 -19.75189 177.14653 33175 ft 532 kts 359°
2026-05-06 04:02 -19.71449 177.15006 32086 ft 540 kts
2026-05-06 04:02 -19.67695 177.15361 31167 ft 545 kts
2026-05-06 04:02 -19.63952 177.15717 30411 ft 545 kts
2026-05-06 04:02 -19.60107 177.16084 29910 ft 538 kts
2026-05-06 04:03 -19.56337 177.16444 29384 ft 533 kts
2026-05-06 04:03 -19.52693 177.16792 28828 ft 529 kts
2026-05-06 04:03 -19.49002 177.17143 28233 ft 524 kts
2026-05-06 04:03 -19.45411 177.17485 27663 ft 520 kts
2026-05-06 04:04 -19.41803 177.17828 27102 ft 516 kts
2026-05-06 04:04 -19.38209 177.18169 26523 ft 512 kts
2026-05-06 04:04 -19.34699 177.18501 25959 ft 508 kts
2026-05-06 04:04 -19.31160 177.18837 25377 ft 503 kts
2026-05-06 04:05 -19.27700 177.19165 24803 ft 499 kts
2026-05-06 04:05 -19.24227 177.19493 24230 ft 495 kts
2026-05-06 04:05 -19.20833 177.19815 23660 ft 492 kts
2026-05-06 04:05 -19.17419 177.20137 23080 ft 488 kts
2026-05-06 04:06 -19.14031 177.20458 22493 ft 485 kts
2026-05-06 04:06 -19.10671 177.20775 21923 ft 481 kts
2026-05-06 04:06 -19.07351 177.21089 21341 ft 478 kts
2026-05-06 04:06 -19.04022 177.21403 20748 ft 475 kts
2026-05-06 04:07 -19.00769 177.21710 20168 ft 472 kts
2026-05-06 04:07 -18.97498 177.22020 19568 ft 469 kts
2026-05-06 04:07 -18.94243 177.22327 18971 ft 465 kts
2026-05-06 04:07 -18.91045 177.22629 18374 ft 462 kts
2026-05-06 04:08 -18.87817 177.22934 17761 ft 458 kts
2026-05-06 04:08 -18.84642 177.23233 17171 ft 454 kts
2026-05-06 04:08 -18.81536 177.23524 16583 ft 450 kts
2026-05-06 04:08 -18.78416 177.23819 15983 ft 447 kts
2026-05-06 04:09 -18.75331 177.24109 15386 ft 443 kts
2026-05-06 04:09 -18.72245 177.24400 14774 ft 438 kts
2026-05-06 04:09 -18.69225 177.24684 14261 ft 432 kts
2026-05-06 04:09 -18.66239 177.24965 13740 ft 426 kts
2026-05-06 04:10 -18.63296 177.25241 13083 ft 423 kts
2026-05-06 04:10 -18.60361 177.25516 12680 ft 414 kts
2026-05-06 04:10 -18.57492 177.25786 12032 ft 412 kts
2026-05-06 04:10 -18.54600 177.26057 11459 ft 407 kts
2026-05-06 04:11 -18.51779 177.26321 11074 ft 397 kts
2026-05-06 04:11 -18.49062 177.26576 10791 ft 385 kts
2026-05-06 04:11 -18.46396 177.26827 10624 ft 371 kts
2026-05-06 04:11 -18.43834 177.27066 10475 ft 358 kts
2026-05-06 04:12 -18.41368 177.27296 10327 ft 345 kts
2026-05-06 04:12 -18.39001 177.27516 10159 ft 330 kts
2026-05-06 04:12 -18.36735 177.27728 10004 ft 316 kts
2026-05-06 04:12 -18.34580 177.27927 9636 ft 311 kts
2026-05-06 04:13 -18.32420 177.28128 9461 ft 302 kts
2026-05-06 04:13 -18.30323 177.28323 9144 ft 299 kts
2026-05-06 04:13 -18.28255 177.28517 8718 ft 298 kts
2026-05-06 04:13 -18.26199 177.28709 8379 ft 294 kts
2026-05-06 04:14 -18.24173 177.28899 7992 ft 292 kts
2026-05-06 04:14 -18.22128 177.29089 7599 ft 291 kts
2026-05-06 04:14 -18.20132 177.29277 7240 ft 288 kts
2026-05-06 04:14 -18.18139 177.29463 6873 ft 286 kts
2026-05-06 04:15 -18.16143 177.29649 6509 ft 284 kts
2026-05-06 04:15 -18.14175 177.29834 6165 ft 281 kts
2026-05-06 04:15 -18.12201 177.30019 5864 ft 280 kts
2026-05-06 04:15 -18.10251 177.30200 5525 ft 280 kts
2026-05-06 04:16 -18.08326 177.30380 5206 ft 279 kts
2026-05-06 04:16 -18.06368 177.30563 4879 ft 278 kts
2026-05-06 04:16 -18.04433 177.30745 4587 ft 277 kts
2026-05-06 04:16 -18.02520 177.30924 4345 ft 272 kts
2026-05-06 04:17 -18.00663 177.31094 4327 ft 257 kts
2026-05-06 04:17 -17.98918 177.31258 4297 ft 243 kts
2026-05-06 04:17 -17.97210 177.31418 4064 ft 243 kts
2026-05-06 04:17 -17.95517 177.31575 3740 ft 242 kts
2026-05-06 04:18 -17.93859 177.31731 3535 ft 235 kts
2026-05-06 04:18 -17.92265 177.31952 3504 ft 215 kts 23°
2026-05-06 04:18 -17.91012 177.32610 3462 ft 190 kts 36°
2026-05-06 04:18 -17.89939 177.33365 3158 ft 181 kts 40°
2026-05-06 04:19 -17.88927 177.34122 2862 ft 173 kts 41°
2026-05-06 04:19 -17.87981 177.34833 2625 ft 164 kts 41°
2026-05-06 04:19 -17.87070 177.35516 2409 ft 152 kts 41°
2026-05-06 04:19 -17.86204 177.36168 2206 ft 152 kts 41°
2026-05-06 04:20 -17.85337 177.36818 2006 ft 151 kts 41°
2026-05-06 04:20 -17.84470 177.37468 1803 ft 151 kts 42°
2026-05-06 04:20 -17.83607 177.38115 1596 ft 150 kts 42°
2026-05-06 04:20 -17.82755 177.38754 1392 ft 151 kts 41°
2026-05-06 04:21 -17.81894 177.39397 1225 ft 149 kts 40°
2026-05-06 04:21 -17.81009 177.40024 1028 ft 152 kts 38°
2026-05-06 04:21 -17.80117 177.40643 806 ft 153 kts 39°
2026-05-06 04:21 -17.79258 177.41312 588 ft 153 kts 42°
2026-05-06 04:22 -17.78421 177.41994 369 ft 153 kts 41°
2026-05-06 04:22 -17.77573 177.42676 173 ft 154 kts 40°
2026-05-06 04:22 -17.76742 177.43349 53 ft 140 kts 39°
2026-05-06 04:23 -17.75604 177.44258 55 ft 42 kts 38°
2026-05-06 04:23 -17.75383 177.44434 55 ft 35 kts 37°
2026-05-06 04:23 -17.75216 177.44560 53 ft 27 kts 37°
2026-05-06 04:23 -17.75126 177.44653 52 ft 11 kts 71°
2026-05-06 04:24 -17.75128 177.44731 53 ft 9 kts 99°
2026-05-06 04:24 -17.75141 177.44795 54 ft 9 kts 103°
2026-05-06 04:24 -17.75157 177.44865 56 ft 10 kts 104°
2026-05-06 04:24 -17.75177 177.44942 58 ft 9 kts 104°
2026-05-06 04:25 -17.75189 177.44994 59 ft 4 kts 105°
2026-05-06 04:25 -17.75192 177.45007 59 ft 0 kts 104°